DIRECTV 7S (28238 NORAD) Tracking and Keplerian Element Data

This shows tracking and keplerian element data for the satellite.

Feedback or suggestion? Click here.




ElementValue
Catalog28238
NameDIRECTV 7S
Epoch Orbit5353
Epoch Day345.70085472
Epoch Year2018
RAAN52.7877
Inclination0.0217
Eccentricity0.000291
Argument of Perigee208.6889
Mean Anonmoly312.1264
Mean Motion1.00272224
Decay Rate7E-08
L11 28238U 04016A 18345.70085472 .00000007 00000-0 00000+0 0 9994
L22 28238 0.0217 52.7877 0002910 208.6889 312.1264 1.00272224 53539

Live tracking and technical data element details for DIRECTV 7S (NORAD 28238). DIRECTV 7S can be tracked NOW for your location showing map with azimuth and elevation plus other details from your city location.

Track the satellite on the map from your city or location and see movement details for azimuth, elevation, latitude, longitude, range, height, and movement on the map or in text.







IsCatalogInMostPopularTable: catalog: 28238, numindb: 61
Update: records affected: 1



GetName: 28238 DIRECTV 7S

Hit Count: updated at: Thu, 13 Dec 2018 05:02:53 GMT